Location: Poughquag
(41.6090°N, 73.6820°W)
Time: 05:13:02
(UTC-04:00)

Altair - Pass Details

Date: 05 December 2023
Orbit: 1501 x 1682 km, 47.2° (Epoch: 10 September)

Event Time Altitude Azimuth Distance (km) Brightness Sun altitude
Rises 10:04:28 0° 265° (W) 4,800 9.9 21.9°
Reaches altitude 10° 10:07:40 10° 269° (W) 3,790 9.4 22.1°
Maximum altitude 10:17:11 65° 351° (N) 1,672 7.8 22.8°
Drops below altitude 10° 10:26:23 10° 73° (ENE) 3,672 9.6 23.4°
Sets 10:29:27 0° 76° (ENE) 4,644 10.1 23.6°
